TimeEET,TemperatureF,Dew PointF,Humidity,Sea Level PressureIn,VisibilityMPH,Wind Direction,Wind SpeedMPH,Gust SpeedMPH,PrecipitationIn,Events,Conditions,WindDirDegrees,DateUTC
12:50 AM,39.2,39.2,100,30.24,6.2,Calm,Calm,-,N/A,,Scattered Clouds,0,2012-11-04 22:50:00
1:50 AM,35.6,35.6,100,30.24,6.2,WNW,1.2,-,N/A,,Scattered Clouds,300,2012-11-04 23:50:00
2:00 AM,36,36,100,,6,WNW,1.2,,,,Partly Cloudy,300,2012-11-05 00:00:00
2:50 AM,35.6,35.6,100,30.24,6.2,West,2.3,-,N/A,,Scattered Clouds,280,2012-11-05 00:50:00
3:50 AM,33.8,33.8,100,30.24,6.2,Calm,Calm,-,N/A,,Scattered Clouds,0,2012-11-05 01:50:00
4:50 AM,32.0,32.0,100,30.24,6.2,Calm,Calm,-,N/A,,Scattered Clouds,0,2012-11-05 02:50:00
5:50 AM,32.0,32.0,100,30.24,6.2,Calm,Calm,-,N/A,,Scattered Clouds,0,2012-11-05 03:50:00
6:50 AM,33.8,33.8,100,30.24,6.2,Calm,Calm,-,N/A,,Scattered Clouds,0,2012-11-05 04:50:00
7:50 AM,39.2,39.2,100,30.24,6.2,Calm,Calm,-,N/A,,Scattered Clouds,0,2012-11-05 05:50:00
8:00 AM,38,38,100,,6,Calm,Calm,,,,Partly Cloudy,,2012-11-05 06:00:00
8:50 AM,44.6,41.0,87,30.24,6.2,Calm,Calm,-,N/A,,Partly Cloudy,0,2012-11-05 06:50:00
9:50 AM,51.8,41.0,67,30.24,6.2,Variable,2.3,-,N/A,,Partly Cloudy,0,2012-11-05 07:50:00
10:50 AM,55.4,32.0,41,30.21,6.2,WSW,5.8,-,N/A,,Scattered Clouds,250,2012-11-05 08:50:00
11:50 AM,53.6,28.4,38,30.21,6.2,WNW,4.6,-,N/A,,Mostly Cloudy,290,2012-11-05 09:50:00
12:50 PM,55.4,30.2,38,30.18,6.2,NW,4.6,-,N/A,,Mostly Cloudy,320,2012-11-05 10:50:00
1:50 PM,55.4,28.4,36,30.18,6.2,NNW,3.5,-,N/A,,Mostly Cloudy,330,2012-11-05 11:50:00
2:00 PM,55,28,23,,6,NNW,4.6,,,,Partly Cloudy,330,2012-11-05 12:00:00
2:50 PM,53.6,30.2,41,30.18,6.2,WNW,4.6,-,N/A,,Mostly Cloudy,290,2012-11-05 12:50:00
3:50 PM,51.8,30.2,44,30.18,6.2,ENE,3.5,-,N/A,,Scattered Clouds,60,2012-11-05 13:50:00
4:50 PM,44.6,33.8,66,30.18,6.2,SE,9.2,-,N/A,,Scattered Clouds,130,2012-11-05 14:50:00
5:50 PM,42.8,32.0,66,30.21,6.2,SE,4.6,-,N/A,,Scattered Clouds,140,2012-11-05 15:50:00
6:50 PM,41.0,32.0,70,30.21,6.2,West,6.9,-,N/A,,Scattered Clouds,280,2012-11-05 16:50:00
7:50 PM,37.4,30.2,75,30.21,6.2,West,3.5,-,N/A,,Scattered Clouds,260,2012-11-05 17:50:00
8:00 PM,37,31,70,,6,West,3.5,,,,Partly Cloudy,260,2012-11-05 18:00:00
8:50 PM,35.6,30.2,81,30.21,-9999.0,NW,4.6,-,N/A,,Clear,310,2012-11-05 18:50:00
9:50 PM,33.8,30.2,87,30.21,-9999.0,NW,3.5,-,N/A,,Clear,320,2012-11-05 19:50:00
10:50 PM,32.0,30.2,93,30.21,-9999.0,NW,1.2,-,N/A,,Clear,310,2012-11-05 20:50:00
11:50 PM,32.0,30.2,93,30.21,-9999.0,NW,2.3,-,N/A,,Clear,310,2012-11-05 21:50:00